Location: Sungai Buloh
(3.1000°N, 113.0000°E)
Time: 16:50:37
(UTC+00:00)

BLOCK DM-SL R/B - Pass Details

Date: 12 January 2026
Orbit: 685 x 35808 km, 0.8° (Epoch: 11 February)

Event Time Altitude Azimuth Distance (km) Brightness Sun altitude
Exits shadow 20:19:59 36° 115° (ESE) 1,089 4.2 -32.7°
Drops below altitude 10° 20:22:20 10° 100° (E) 2,153 6.1 -32.2°
Sets 20:24:38 0° 97° (E) 3,333 7.3 -31.7°
